Regional Weather Roundup
Issued by NWS

Home | Current Version | Previous Version | Text Only | Print | Product List | Glossary On
Versions: 1 2 3 4 5 6 7 8 9 10 11 12 13 14 15 16 17 18 19 20 21 22 23 24 25 26 27 28 29 30 31 32 33 34 35 36 37 38 39 40 41 42 43 44 45 46 47 48 49 50
000
ASUS43 KMPX 291610
RWRMN
WEATHER ROUNDUP FOR MINNESOTA
NATIONAL WEATHER SERVICE TWIN CITIES/CHANHASSEN MN
1000 AM CST THU JAN 29 2015


NOTE: "FAIR" INDICATES FEW OR NO CLOUDS BELOW 12,000 FEET WITH NO
SIGNIFICANT WEATHER AND/OR OBSTRUCTIONS TO VISIBILITY. N/A MEANS
CURRENT SKY AND/OR WEATHER CONDITIONS ARE NOT AVAILABLE.

MNZ060>063-068>070-291700-
   Twin Cities Metro

CITY           SKY/WX    TMP DP  RH WIND       PRES   REMARKS
TWIN CITIES    CLOUDY    30  22  72 NW22G30   30.19R WCI  17
ST PAUL        CLOUDY    31  24  75 NW21      30.19R WCI  18
CRYSTAL        CLOUDY    31  23  72 NW16G29   30.19R WCI  20
LAKEVILLE      CLOUDY    28  25  86 NW20G31   30.17R WCI  15
EDEN PRAIRIE   CLOUDY    30  22  72 NW14G22   30.19R WCI  19
SOUTH ST PAUL  CLOUDY    32  25  74 NW12G25   30.18R WCI  23
LAKE ELMO      CLOUDY    32  27  80 NW16G22   30.17R WCI  21
$$
MNZ001>005-007-008-013>017-022>024-027-028-291700-
   Northwest Minnesota

CITY           SKY/WX    TMP DP  RH WIND       PRES   REMARKS
BEMIDJI        FLURRIES  12   7  82 NW22      30.28R WCI  -7
HALLOCK        CLOUDY     9   1  72 N26G32    30.46R WCI -13
ROSEAU         CLOUDY     5   0  78 NW15      30.39R WCI -13
WARROAD        PTSUNNY    3  -2  78 NW18      30.37R WCI -17
THIEF RVR FALL CLOUDY     9   3  78 N22       30.40R WCI -11
CROOKSTON      CLOUDY     9   5  85 N28G35    30.46R WCI -13
FOSSTON        LGT SNOW   9   3  78 NW20G25   30.37R WCI -11
DETROIT LAKES  LGT SNOW  14  10  85 NW24G30   30.35R WCI  -5
MOORHEAD       MIX PCPN  19  16  86 N23       30.42R WCI   2
PARK RAPIDS    CLOUDY    16  11  80 NW15G31   30.26R WCI   1
MAHNOMEN       LGT SNOW  11   8  84 NW20      30.37R WCI  -7
$$
MNZ006-009>011-018-025>026-291700-
   North Central Minnesota

CITY           SKY/WX    TMP DP  RH WIND       PRES   REMARKS
BAUDETTE       CLOUDY     4  -1  80 NW21G31   30.31R WCI -17
FLAG ISLAND    CLOUDY     3  -2  78 NW23      30.34R HAZE    WCI -19
INTL FALLS     LGT SNOW  13   7  77 NW18      30.22R WCI  -4
WASKISH        FLURRIES  10   7  85 NW13G20   30.31R WCI  -5
BIG FORK       LGT SNOW  14   9  79 NW5       30.22R WCI   6
LONGVILLE      FLURRIES  18  12  79 NW15      30.23R WCI   3
GRAND RAPIDS   CLOUDY    19  16  86 NW22      30.17R WCI   3
CRANE LAKE     LGT SNOW  16  12  86 NW10G20   30.18R WCI   3
ORR            LGT SNOW  16  10  79 NW14G20   30.14R WCI   1
COOK           LGT SNOW  18  16  93 W16G22    30.15R WCI   3
WALKER         LGT SNOW  14  10  81 NW13G21   30.26R WCI   0
$$
MNZ012-019>021-037-291700-
   Northeast Minnesota

CITY           SKY/WX    TMP DP  RH WIND       PRES   REMARKS
DULUTH         CLOUDY    24  19  81 NW16G25   30.08R WCI  11
ELY            FLURRIES  18  14  86 NW13G23   30.08R WCI   4
HIBBING        MIX PCPN  20  13  74 NW24G30   30.13R WCI   3
EVELETH        CLOUDY    21  19  93 NW17G28   30.13R FOG     WCI   7
DULUTH HARBOR  CLOUDY    28  25  86 NW16      30.14R WCI  17
TWO HARBORS    CLOUDY    28  19  69 NW7G18    30.06R WCI  21
SILVER BAY     CLOUDY    27  19  74 NW10      30.05R WCI  17
GRAND MARAIS     N/A     26  15  63 NW9       30.04R WCI  17
G MARAIS ARPRT LGT SNOW  16   9  73 NW14G22   29.96R WCI   1
$$
MNZ029>031-032-039>041-046>048-054>057-064-291700-
   West Central Minnesota

CITY           SKY/WX    TMP DP  RH WIND       PRES   REMARKS
FERGUS FALLS   CLOUDY    18  14  86 N17G30    30.40R WCI   2
WHEATON        CLOUDY    21  16  79 NW21G28   30.41R WCI   6
MORRIS         CLOUDY    21  16  79 NW25G37   30.34R WCI   4
ALEXANDRIA     CLOUDY    19  13  77 NW15G24   30.30R WCI   5
ELBOW LAKE     CLOUDY    19  14  82 N24G32    30.34R WCI   1
WADENA         CLOUDY    16  12  86 NW17G28   30.29R WCI   0
GLENWOOD       CLOUDY    21  16  79 NW22G33   30.30R WCI   5
APPLETON       CLOUDY    25  18  74 N23G31    30.37R WCI  10
BENSON         CLOUDY    21  16  79 N18G31    30.35R WCI   6
ORTONVILLE     CLOUDY    25  18  74 N21       30.37R WCI  10
MADISON        CLOUDY    30  25  80 N24G31    30.37R WCI  16
WILLMAR        PTSUNNY   25  19  80 NW25G31   30.31R WCI   9
$$
MNZ033>034-036-042>043-049>051-058-059-291700-
   Central Minnesota

CITY           SKY/WX    TMP DP  RH WIND       PRES   REMARKS
ST CLOUD       CLOUDY    26  18  71 NW15G30   30.23R WCI  14
SAUK CENTRE    CLOUDY    21  16  81 NW17G26   30.28R WCI   6
PAYNESVILLE    CLOUDY    22  18  85 W18G26    30.28R WCI   7
AITKIN         CLOUDY    25  18  74 NW14G21   30.19R WCI  13
PINE RIVER     CLOUDY    19  14  79 NW10G21   30.27R WCI   8
BRAINERD       CLOUDY    21  16  81 NW18      30.23R WCI   6
STAPLES        CLOUDY    18  16  93 NW20      30.27R WCI   1
LONG PRAIRIE   CLOUDY    19  16  86 W17G25    30.27R WCI   4
LITTLE FALLS   CLOUDY    23  18  80 NW13      30.25R WCI  11
LITCHFIELD     CLOUDY    27  23  86 NW18G25   30.26R WCI  13
BUFFALO        CLOUDY    28  21  76 NW16G24   30.24R WCI  16
MAPLE LAKE     CLOUDY    28  23  81 NW15G26   30.24R WCI  16
$$
MNZ037-044-045-052-053-291700-
   East Central Minnesota

CITY           SKY/WX    TMP DP  RH WIND       PRES   REMARKS
PRINCETON      CLOUDY    28  21  74 W17G24    30.21R WCI  16
MORA           CLOUDY    27  19  74 NW14G25   30.19R WCI  15
CAMBRIDGE      CLOUDY    30  21  69 NW13G20   30.17R WCI  20
RUSH CITY      CLOUDY    29  22  73 NW12G21   30.17R WCI  20
MOOSE LAKE     CLOUDY    28  21  74 NW14      30.13R WCI  17
HINCKLEY       CLOUDY    30  23  74 NW15G25   30.15R WCI  19
CLOQUET        CLOUDY    25  18  74 NW16G26   30.11R WCI  12
MCGREGOR       CLOUDY    25  19  80 NW15G22   30.18R WCI  12
$$
MNZ071>073-080-081-089-090-097-098-291700-
   Southwest Minnesota

CITY           SKY/WX    TMP DP  RH WIND       PRES   REMARKS
MONTEVIDEO     CLOUDY    25  19  80 N22G31    30.36R WCI  10
GRANITE FALLS  CLOUDY    26  20  79 NW17G29   30.36R WCI  13
CANBY          CLOUDY    28  23  83 NW18G26   30.37R WCI  15
MARSHALL       CLOUDY    27  19  74 N22G30    30.35R WCI  12
REDWOOD FALLS  CLOUDY    27  20  75 NW17G32   30.30R WCI  14
OLIVIA         CLOUDY    27  21  80 NW21G30   30.30R WCI  13
PIPESTONE      CLOUDY    28  23  80 N13G23    30.32R WCI  18
WINDOM         CLOUDY    28  25  86 NW21G35   30.28R WCI  15
WORTHINGTON    CLOUDY   N/A N/A N/A NW24G31   30.30R
JACKSON        CLOUDY    30  27  86 NW25G33   30.27R WCI  16
TRACY          CLOUDY    28  23  82 NW25G33   30.33R WCI  13
SLAYTON        CLOUDY    27  22  84 NW21G29   30.31R WCI  13
$$
MNZ065>067-074>077-082>085-091>093-291700-
   South Central Minnesota

CITY           SKY/WX    TMP DP  RH WIND       PRES   REMARKS
MANKATO        CLOUDY   N/A N/A N/A NW25G31   30.21R
NEW ULM        CLOUDY    28  23  80 NW17G30   30.26R WCI  16
ST JAMES       CLOUDY    30  25  80 NW25G35   30.27R WCI  16
FAIRMONT       CLOUDY    30  21  69 NW23G35   30.24R WCI  17
GLENCOE        CLOUDY    29  25  84 NW21G28   30.24R WCI  16
FARIBAULT      CLOUDY    30  25  80 NW15G21   30.19R WCI  19
OWATONNA       CLOUDY    28  25  86 NW23G30   30.18R WCI  14
WASECA         CLOUDY    30  25  80 NW24      30.21R WCI  16
ALBERT LEA     CLOUDY    28  27  93 NW15G25   30.17R WCI  17
$$
MNZ078>079-086>088-094>096-291700-
   Southeast Minnesota

CITY           SKY/WX    TMP DP  RH WIND       PRES   REMARKS
ROCHESTER      CLOUDY    30  27  88 NW26G36   30.11R FOG     WCI  16
RED WING       CLOUDY    34  27  75 NW12G20   30.14R WCI  25
STANTON        CLOUDY    32  27  80 NW22G28   30.15R WCI  19
DODGE CENTER   CLOUDY    30  27  86 NW17G28   30.13R WCI  18
WINONA         CLOUDY    34  28  80 NW13G24   30.10R WCI  25
AUSTIN         CLOUDY    28  27  93 NW21G32   30.14R WCI  15
PRESTON        CLOUDY    31  27  84 N20G30    30.08R WCI  19
$$
ABBREVIATIONS USED IN REMARKS
   TC - TEMPERATURES IN CELSIUS
  WCI - WIND CHILL INDEX
   HX - HEAT INDEX
  VSB - VISIBILITY
$$


USA.gov is the U.S. government's official web portal to all federal, state and local government web resources and services.